Winfield, KS

7:39 PM CDT on March 25, 2017 (GMT -0500)
Strother

Weather History for KWLD - August, 2012

Change the Weather History Date:

Tuesday, August 14, 2012

  Actual Average Record
Temperature  
Mean Temperature 70 °F -  
Max Temperature 75 °F 89 °F 105 °F (2010)
Min Temperature 64 °F 66 °F 54 °F (2002)
Cooling Degree Days 4    
Growing Degree Days 20 (Base 50)    
Moisture  
Dew Point 60 °F    
Average Humidity 75    
Maximum Humidity 93    
Minimum Humidity 57    
Precipitation  
Precipitation 0.20 in - - ()
Sea Level Pressure  
Sea Level Pressure 29.99 in    
Wind  
Wind Speed 7 mph (East)    
Max Wind Speed 12 mph    
Max Gust Speed -    
Visibility 10 miles    
Events Rain    
Averages and records for this station are not official NWS values.
T = Trace of Precipitation, MM = Missing Value Source: NWS Daily Summary

Daily Weather History Graph

Daily Weather History Graph

Search for Another Location

Airport or City:

Trip Planner

Search our weather history database for the weather conditions in past years. The results will help you decide how hot, cold, wet, or windy it might be!

Date:

Astronomy

Aug. 14, 2012 Rise Set
Actual Time 6:44 AM CDT 8:20 PM CDT
Civil Twilight 6:16 AM CDT 8:48 PM CDT
Nautical Twilight 5:43 AM CDT 9:21 PM CDT
Astronomical Twilight 5:07 AM CDT 9:56 PM CDT
Moon 3:45 AM CDT (8/14) 6:14 PM CDT (8/14)
Length of Visible Light 14h 31m
Length of Day
13h 36m
Waning Crescent, 9% of the Moon is Illuminated
Aug 14
Waning Crescent
Aug 17
New
Aug 24
First Quarter
Aug 31
Full
Sep 8
Last Quarter

Hourly Weather History & Observations

Time (CDT) Temp. Dew Point Humidity Pressure Visibility Wind Dir Wind Speed Gust Speed Precip Events Conditions
12:54 AM 71.1 °F 57.9 °F 63% 30.00 in 10.0 mi East 9.2 mph - N/A   Clear
1:54 AM 71.1 °F 59.0 °F 66% 30.01 in 10.0 mi East 9.2 mph - N/A   Clear
2:54 AM 70.0 °F 59.0 °F 68% 30.04 in 10.0 mi ENE 4.6 mph - N/A   Mostly Cloudy
3:54 AM 69.1 °F 57.9 °F 68% 30.02 in 10.0 mi East 5.8 mph - N/A   Partly Cloudy
4:54 AM 68.0 °F 59.0 °F 73% 30.01 in 10.0 mi ESE 6.9 mph - N/A   Clear
5:54 AM 68.0 °F 59.0 °F 73% 30.01 in 10.0 mi SE 4.6 mph - N/A   Mostly Cloudy
6:54 AM 68.0 °F 59.0 °F 73% 30.00 in 10.0 mi East 8.1 mph - N/A   Scattered Clouds
7:54 AM 69.1 °F 59.0 °F 70% 30.02 in 10.0 mi ESE 5.8 mph - N/A   Clear
8:54 AM 71.1 °F 59.0 °F 66% 30.02 in 10.0 mi ESE 10.4 mph - N/A   Clear
9:54 AM 73.0 °F 59.0 °F 61% 30.03 in 9.0 mi East 6.9 mph - N/A   Clear
10:54 AM 73.9 °F 59.0 °F 59% 30.05 in 10.0 mi East 6.9 mph - N/A   Partly Cloudy
11:54 AM 75.0 °F 59.0 °F 57% 30.02 in 10.0 mi East 8.1 mph - N/A   Mostly Cloudy
12:54 PM 73.9 °F 60.1 °F 62% 30.04 in 9.0 mi ENE 4.6 mph - 0.00 in Rain Light Rain
1:54 PM 68.0 °F 63.0 °F 84% 30.03 in 6.0 mi ENE 5.8 mph - 0.06 in Rain Light Rain
2:54 PM 66.0 °F 63.0 °F 90% 30.02 in 5.0 mi ESE 9.2 mph - 0.09 in Rain Rain
3:54 PM 66.0 °F 64.0 °F 93% 29.98 in 10.0 mi East 11.5 mph - 0.05 in   Mostly Cloudy
4:54 PM 66.9 °F 63.0 °F 87% 29.96 in 10.0 mi ESE 11.5 mph - N/A   Overcast
5:54 PM 68.0 °F 62.1 °F 81% 29.94 in 10.0 mi ESE 10.4 mph - N/A   Mostly Cloudy
6:54 PM 70.0 °F 61.0 °F 73% 29.91 in 10.0 mi East 8.1 mph - N/A   Clear
7:54 PM 69.1 °F 61.0 °F 75% 29.91 in 10.0 mi East 4.6 mph - N/A   Clear
8:54 PM 66.9 °F 61.0 °F 81% 29.91 in 10.0 mi East 4.6 mph - N/A   Clear
9:54 PM 66.0 °F 62.1 °F 87% 29.92 in 10.0 mi East 4.6 mph - N/A   Clear
10:54 PM 64.9 °F 62.1 °F 90% 29.92 in 10.0 mi East 4.6 mph - N/A   Clear
11:54 PM 64.0 °F 62.1 °F 93% 29.91 in 10.0 mi East 5.8 mph - N/A   Clear